STARLINK-3156 (49458 NORAD) Tracking and Keplerian Element Data

This shows tracking and keplerian element data for the satellite.

Feedback or suggestion? Click here.




ElementValue
Catalog49458
NameSTARLINK-3156
Epoch Orbit369
Epoch Day15.91668981
Epoch Year2022
RAAN180.2293
Inclination53.2173
Eccentricity0.0001659
Argument of Perigee41.8237
Mean Anonmoly119.4093
Mean Motion15.5502906
Decay Rate-0.00648843
L11 49458U 21104BC 22015.91668981 -.00648843 00000+0 -10290-1 0 9993
L22 49458 53.2173 180.2293 0001659 41.8237 119.4093 15.55029060 3692

Live tracking and technical data element details for STARLINK-3156 (NORAD 49458). STARLINK-3156 can be tracked NOW for your location showing map with azimuth and elevation plus other details from your city location.

Track the satellite on the map from your city or location and see movement details for azimuth, elevation, latitude, longitude, range, height, and movement on the map or in text.







IsCatalogInMostPopularTable: catalog: 49458, numindb: 6
Update: records affected: 1



GetName: 49458 STARLINK-3156

Hit Count: updated at: Thu, 20 Jan 2022 16:50:05 GMT